When you browse on this site, cookies collect data to enhance your experience and personalize the content and advertising you see.
Visit our Privacy Policy to learn more. By continuing to use the site, you agree to this use of cookies and data.
  • In Portugal
  • List of Countries
  • For 7 days
  • Water Temperature
  • Satellite Maps
  • Weather Map
  • Weather Widgets
  • user-avatar
    Login

    Hourly Weather Trun

    Today, 26 April, Friday

    Time Temperature Precipitation Wind Pressure Humidity
    00:00 +2°C° 0 mm 1 mps 746 mmHg 82%
    01:00 +1°C° 0 mm 1 mps 746 mmHg 84%
    02:00 +1°C° 0 mm 1 mps 746 mmHg 84%
    03:00 0°C° 0 mm 1 mps 746 mmHg 85%
    04:00 0°C° 0 mm 1 mps 746 mmHg 85%
    05:00 +1°C° 0 mm 1 mps 746 mmHg 79%
    06:00 +2°C° 0 mm 1 mps 746 mmHg 73%
    07:00 +3°C° 0 mm 1 mps 746 mmHg 66%
    08:00 +4°C° 0 mm 1 mps 745 mmHg 58%
    09:00 +5°C° 0 mm 2 mps 745 mmHg 50%
    10:00 +6°C° 0 mm 2 mps 745 mmHg 42%
    11:00 +7°C° 0 mm 3 mps 745 mmHg 42%
    12:00 +8°C° 0 mm 3 mps 744 mmHg 43%
    13:00 +7°C° 0 mm 4 mps 744 mmHg 43%
    14:00 +7°C° 0.3 mm 4 mps 744 mmHg 46%
    15:00 +7°C° 0.3 mm 5 mps 744 mmHg 49%
    16:00 +7°C° 0.3 mm 5 mps 744 mmHg 52%
    17:00 +6°C° 0.1 mm 4 mps 744 mmHg 55%
    18:00 +6°C° 0.1 mm 4 mps 743 mmHg 58%
    19:00 +5°C° 0.1 mm 3 mps 743 mmHg 61%
    20:00 +5°C° 0 mm 2 mps 744 mmHg 65%
    21:00 +4°C° 0 mm 2 mps 744 mmHg 68%
    22:00 +3°C° 0 mm 2 mps 744 mmHg 72%
    23:00 +3°C° 0 mm 1 mps 744 mmHg 74%

    Tomorrow, 27 April, Saturday

    Time Temperature Precipitation Wind Pressure Humidity
    00:00 +3°C° 0 mm 1 mps 744 mmHg 76%
    01:00 +2°C° 0 mm 1 mps 744 mmHg 79%
    02:00 +1°C° 0 mm 1 mps 744 mmHg 80%
    03:00 +1°C° 0 mm 1 mps 744 mmHg 81%
    04:00 +1°C° 0 mm 1 mps 744 mmHg 82%
    05:00 +2°C° 0 mm 1 mps 744 mmHg 77%
    06:00 +2°C° 0 mm 2 mps 744 mmHg 73%
    07:00 +3°C° 0 mm 2 mps 744 mmHg 68%
    08:00 +3°C° 0 mm 3 mps 743 mmHg 63%
    09:00 +5°C° 0 mm 5 mps 743 mmHg 59%
    10:00 +7°C° 0 mm 6 mps 742 mmHg 54%
    11:00 +8°C° 0 mm 6 mps 742 mmHg 51%
    12:00 +9°C° 0 mm 7 mps 741 mmHg 47%
    13:00 +11°C° 0 mm 8 mps 740 mmHg 44%
    14:00 +11°C° 0 mm 7 mps 740 mmHg 42%
    15:00 +12°C° 0 mm 7 mps 739 mmHg 40%
    16:00 +12°C° 0 mm 7 mps 738 mmHg 38%
    17:00 +11°C° 0 mm 6 mps 738 mmHg 43%
    18:00 +10°C° 0 mm 5 mps 738 mmHg 48%
    19:00 +11°C° 0 mm 4 mps 737 mmHg 53%
    20:00 +10°C° 0 mm 4 mps 737 mmHg 56%
    21:00 +8°C° 0 mm 4 mps 736 mmHg 59%
    22:00 +7°C° 0 mm 4 mps 736 mmHg 62%
    23:00 +7°C° 0 mm 4 mps 736 mmHg 62%

    Day after tomorrow, 28 April, Sunday

    Time Temperature Precipitation Wind Pressure Humidity
    00:00 +7°C° 0 mm 5 mps 735 mmHg 63%
    01:00 +7°C° 0 mm 5 mps 735 mmHg 63%
    02:00 +7°C° 0.2 mm 5 mps 734 mmHg 65%
    03:00 +7°C° 0.2 mm 5 mps 734 mmHg 66%
    04:00 +7°C° 0.2 mm 5 mps 733 mmHg 68%
    05:00 +6°C° 0.4 mm 4 mps 733 mmHg 73%
    06:00 +6°C° 0.4 mm 4 mps 732 mmHg 78%
    07:00 +6°C° 0.4 mm 4 mps 732 mmHg 83%
    08:00 +4°C° 1.6 mm 4 mps 732 mmHg 86%
    09:00 +1°C° 1.6 mm 5 mps 732 mmHg 88%
    10:00 -1°C° 1.6 mm 6 mps 732 mmHg 91%
    11:00 0°C° 0.9 mm 5 mps 733 mmHg 90%
    12:00 0°C° 0.9 mm 5 mps 734 mmHg 89%
    13:00 +1°C° 0.9 mm 5 mps 734 mmHg 88%
    14:00 +1°C° 0.1 mm 5 mps 735 mmHg 86%
    15:00 +1°C° 0.1 mm 5 mps 735 mmHg 83%
    16:00 +1°C° 0.1 mm 5 mps 736 mmHg 81%
    17:00 0°C° 0 mm 5 mps 736 mmHg 81%
    18:00 0°C° 0 mm 4 mps 737 mmHg 81%
    19:00 +1°C° 0 mm 3 mps 737 mmHg 81%
    20:00 0°C° 0 mm 3 mps 738 mmHg 84%
    21:00 -1°C° 0 mm 3 mps 738 mmHg 86%
    22:00 -2°C° 0 mm 3 mps 739 mmHg 88%
    23:00 -2°C° 0 mm 3 mps 739 mmHg 89%

    29 April, Monday

    Time Temperature Precipitation Wind Pressure Humidity
    00:00 -4°C° 0 mm 3 mps 740 mmHg 90%
    01:00 -4°C° 0 mm 3 mps 740 mmHg 91%
    02:00 -5°C° 0 mm 3 mps 740 mmHg 91%
    03:00 -5°C° 0 mm 3 mps 741 mmHg 91%
    04:00 -6°C° 0 mm 3 mps 741 mmHg 91%
    05:00 -5°C° 0 mm 3 mps 742 mmHg 86%
    06:00 -4°C° 0 mm 4 mps 742 mmHg 80%
    07:00 -3°C° 0 mm 4 mps 742 mmHg 75%
    08:00 -2°C° 0 mm 4 mps 743 mmHg 69%
    09:00 -1°C° 0 mm 4 mps 743 mmHg 62%
    10:00 0°C° 0 mm 4 mps 743 mmHg 55%
    11:00 +1°C° 0 mm 4 mps 743 mmHg 52%
    12:00 +1°C° 0 mm 4 mps 743 mmHg 49%
    13:00 +3°C° 0 mm 4 mps 743 mmHg 46%
    14:00 +3°C° 0.1 mm 3 mps 743 mmHg 47%
    15:00 +3°C° 0.1 mm 3 mps 743 mmHg 47%
    16:00 +3°C° 0.1 mm 3 mps 743 mmHg 48%
    17:00 +2°C° 0.2 mm 3 mps 743 mmHg 55%
    18:00 +2°C° 0.2 mm 2 mps 744 mmHg 61%
    19:00 +1°C° 0.2 mm 2 mps 744 mmHg 68%
    20:00 -1°C° 0 mm 2 mps 744 mmHg 74%
    21:00 -2°C° 0 mm 2 mps 744 mmHg 79%
    22:00 -3°C° 0 mm 2 mps 744 mmHg 85%
    23:00 -4°C° 0 mm 2 mps 744 mmHg 87%

    30 April, Tuesday

    Time Temperature Precipitation Wind Pressure Humidity
    00:00 -4°C° 0 mm 2 mps 744 mmHg 88%
    01:00 -4°C° 0 mm 2 mps 744 mmHg 90%
    02:00 -5°C° 0 mm 2 mps 744 mmHg 89%
    03:00 -5°C° 0 mm 2 mps 744 mmHg 88%
    04:00 -5°C° 0 mm 2 mps 744 mmHg 87%
    05:00 -4°C° 0 mm 2 mps 744 mmHg 81%
    06:00 -4°C° 0 mm 3 mps 744 mmHg 75%
    07:00 -2°C° 0 mm 3 mps 744 mmHg 69%
    08:00 -1°C° 0 mm 3 mps 744 mmHg 63%
    09:00 0°C° 0 mm 3 mps 744 mmHg 56%
    10:00 +1°C° 0 mm 3 mps 744 mmHg 50%
    11:00 0°C° 0 mm 4 mps 744 mmHg 50%
    12:00 +1°C° 0 mm 4 mps 744 mmHg 50%
    13:00 +1°C° 0 mm 4 mps 744 mmHg 50%
    14:00 +1°C° 0 mm 4 mps 743 mmHg 49%
    15:00 +1°C° 0 mm 4 mps 743 mmHg 48%
    16:00 +3°C° 0 mm 4 mps 743 mmHg 48%
    17:00 +1°C° 0 mm 4 mps 743 mmHg 52%
    18:00 +1°C° 0 mm 3 mps 743 mmHg 56%
    19:00 +2°C° 0 mm 2 mps 743 mmHg 60%
    20:00 +1°C° 0 mm 2 mps 743 mmHg 64%
    21:00 -1°C° 0 mm 2 mps 743 mmHg 69%
    22:00 -2°C° 0 mm 2 mps 744 mmHg 73%
    23:00 -2°C° 0 mm 2 mps 743 mmHg 73%

    1 May, Wednesday

    Time Temperature Precipitation Wind Pressure Humidity
    00:00 -3°C° 0 mm 2 mps 743 mmHg 74%
    01:00 -3°C° 0 mm 2 mps 743 mmHg 74%
    02:00 -2°C° 0.1 mm 2 mps 743 mmHg 74%
    03:00 -2°C° 0.1 mm 2 mps 743 mmHg 73%
    04:00 -1°C° 0.1 mm 3 mps 743 mmHg 72%
    05:00 -1°C° 0 mm 3 mps 743 mmHg 69%
    06:00 -1°C° 0 mm 4 mps 743 mmHg 66%
    07:00 0°C° 0 mm 4 mps 743 mmHg 63%
    08:00 +1°C° 0.1 mm 5 mps 743 mmHg 62%
    09:00 +2°C° 0.1 mm 5 mps 743 mmHg 60%
    10:00 +3°C° 0.1 mm 6 mps 743 mmHg 59%
    11:00 +4°C° 0.2 mm 6 mps 743 mmHg 58%
    12:00 +5°C° 0.2 mm 6 mps 743 mmHg 57%
    13:00 +5°C° 0.2 mm 6 mps 743 mmHg 56%
    14:00 +5°C° 0.1 mm 6 mps 743 mmHg 56%
    15:00 +6°C° 0.1 mm 5 mps 743 mmHg 56%
    16:00 +7°C° 0.1 mm 5 mps 743 mmHg 56%
    17:00 +6°C° 0.1 mm 4 mps 743 mmHg 60%
    18:00 +5°C° 0.1 mm 4 mps 743 mmHg 63%
    19:00 +5°C° 0.1 mm 3 mps 743 mmHg 67%
    20:00 +4°C° 0 mm 3 mps 743 mmHg 68%
    21:00 +3°C° 0 mm 3 mps 743 mmHg 70%
    22:00 +2°C° 0 mm 3 mps 744 mmHg 71%
    23:00 +2°C° 0 mm 3 mps 744 mmHg 72%
    Show more